GW5991 Weather Reports


time (UTC)temp
C
wind
direction
speed
KPH
gust
KPH
rain 1hr
cm
rain 24hr
cm
rain mn
cm
humidity
%
barometer
mb
20260507015848 10 326 0.0 0.0 0.00 0.23 0.23 74 1023.3
20260507015346 10 264 0.0 0.0 0.00 0.23 0.23 74 1023.3
20260507014842 10 167 0.0 0.0 0.00 0.23 0.23 72 1023.3
20260507014339 10 142 0.0 0.0 0.00 0.23 0.23 74 1023.4
20260507013836 10 283 0.0 0.0 0.00 0.23 0.23 73 1023.1
20260507013333 10 113 0.0 0.0 0.00 0.23 0.23 72 1023.2
20260507012831 10 272 0.0 0.0 0.00 0.23 0.23 75 1023.2
20260507012326 10 274 0.0 0.0 0.00 0.23 0.23 75 1023.2
20260507011823 10 324 0.0 0.0 0.00 0.23 0.23 75 1023.2
20260507011320 10 252 0.0 0.0 0.00 0.23 0.23 77 1023.2
20260507010820 10 152 0.0 0.0 0.00 0.23 0.23 74 1023.4
20260507010315 11 259 0.0 0.0 0.00 0.23 0.23 74 1023.4
20260507005813 11 214 0.0 0.0 0.00 0.23 0.23 72 1023.2
20260507005310 11 358 0.0 0.0 0.00 0.23 0.23 68 1023.4
20260507004806 11 296 0.0 0.0 0.00 0.23 0.23 67 1023.2
20260507004304 11 111 0.0 0.0 0.00 0.23 0.23 68 1023.2
20260507003800 11 26 0.0 0.0 0.00 0.23 0.23 67 1023.3
20260507003255 11 165 0.0 0.0 0.00 0.23 0.23 65 1023.1
20260507002751 11 122 0.0 0.0 0.00 0.23 0.23 66 1023.1
20260507002247 11 20 0.0 0.0 0.00 0.23 0.23 65 1022.9
20260507001744 11 309 0.0 0.0 0.00 0.23 0.23 65 1023.0
20260507001242 11 227 0.0 0.0 0.00 0.23 0.23 65 1022.8
20260507000738 11 51 0.0 0.0 0.00 0.23 0.23 65 1022.8
20260507000234 11 102 0.0 0.0 0.00 0.23 0.23 66 1022.9
20260506235731 11 93 0.0 0.0 0.00 0.23 0.23 66 1023.0
20260506235226 11 296 0.0 1.6 0.00 0.23 0.23 65 1022.9
20260506234723 11 86 0.0 0.0 0.00 0.23 0.23 72 1022.8
20260506234221 10 197 0.0 0.0 0.00 0.23 0.23 71 1022.7
20260506233718 10 359 0.0 0.0 0.00 0.23 0.23 75 1022.7
20260506233214 10 67 0.0 0.0 0.00 0.23 0.23 75 1022.6
20260506232711 11 319 0.0 0.0 0.00 0.23 0.23 68 1022.7
20260506232206 11 62 0.0 0.0 0.00 0.23 0.23 65 1022.6
20260506231703 11 181 0.0 0.0 0.00 0.23 0.23 62 1022.8
20260506231202 11 134 0.0 0.0 0.00 0.23 0.23 68 1022.6
20260506230658 11 212 0.0 0.0 0.00 0.23 0.23 63 1022.8
20260506230155 11 199 0.0 0.0 0.00 0.23 0.23 67 1022.6
20260506225651 11 180 0.0 0.0 0.00 0.23 0.23 70 1022.7
20260506225148 11 251 0.0 0.0 0.00 0.23 0.23 68 1022.7
20260506224645 10 247 0.0 0.0 0.00 0.23 0.23 68 1022.8
20260506224141 10 215 0.0 0.0 0.00 0.23 0.23 68 1022.7
20260506223638 11 346 0.0 0.0 0.00 0.23 0.23 73 1022.5
20260506223134 10 184 0.0 0.0 0.00 0.23 0.23 70 1022.6
20260506222631 11 267 0.0 0.0 0.00 0.23 0.23 69 1022.4
20260506222127 11 153 0.0 0.0 0.00 0.23 0.23 69 1022.6
20260506221625 11 82 0.0 0.0 0.00 0.23 0.23 69 1022.5
20260506221123 11 263 0.0 0.0 0.00 0.23 0.23 67 1022.5
20260506220619 11 3 0.0 0.0 0.00 0.23 0.23 69 1022.6
20260506220114 11 47 0.0 0.0 0.00 0.23 0.23 68 1022.6
20260506215611 11 322 0.0 0.0 0.00 0.23 0.23 73 1022.6
20260506215107 10 301 0.0 0.0 0.00 0.23 0.23 75 1022.4
20260506214604 10 46 0.0 0.0 0.00 0.23 0.23 75 1022.4
20260506214101 10 114 0.0 0.0 0.00 0.23 0.23 75 1022.3
20260506213559 10 189 0.0 0.0 0.00 0.23 0.23 82 1022.4
20260506213056 10 352 0.0 0.0 0.00 0.23 0.23 87 1022.4
20260506212553 9 76 0.0 0.0 0.00 0.23 0.23 88 1022.4
20260506212048 9 49 0.0 0.0 0.00 0.23 0.23 86 1022.4
20260506211544 9 203 0.0 0.0 0.00 0.23 0.23 83 1022.5
20260506211041 9 215 0.0 0.0 0.00 0.23 0.23 83 1022.5
20260506210538 9 52 0.0 0.0 0.00 0.23 0.23 88 1022.3
20260506210035 9 58 0.0 0.0 0.00 0.23 0.23 87 1022.5
20260506205531 9 61 0.0 0.0 0.00 0.23 0.23 87 1022.3
20260506205026 9 61 0.0 0.0 0.00 0.23 0.23 89 1022.1
20260506204525 9 61 0.0 0.0 0.00 0.23 0.23 88 1022.1
20260506204021 9 61 0.0 0.0 0.00 0.23 0.23 89 1022.1
20260506203520 9 48 0.0 0.0 0.13 0.23 0.23 90 1022.2
20260506203016 9 92 0.0 0.0 0.13 0.23 0.23 86 1022.1
20260506202513 9 242 0.0 0.0 0.18 0.20 0.20 87 1022.2
20260506202009 10 221 0.0 0.0 0.30 0.20 0.20 84 1022.1
20260506201508 10 218 0.0 0.0 0.13 0.18 0.18 82 1022.0
20260506201004 10 57 0.0 0.0 0.00 0.15 0.15 72 1022.2
20260506200500 11 91 0.0 0.0 0.00 0.15 0.15 75 1022.0
20260506195956 11 60 0.0 0.0 0.00 0.15 0.15 70 1022.0
20260506195454 11 123 0.0 0.0 0.00 0.15 0.15 68 1022.1
20260506194950 12 13 0.0 0.0 0.00 0.15 0.15 67 1022.0
20260506194448 11 164 0.0 0.0 0.00 0.15 0.15 72 1021.9
20260506193944 11 346 0.0 0.0 0.00 0.15 0.15 69 1021.9
20260506193441 11 194 0.0 0.0 0.00 0.15 0.15 68 1022.1
20260506192938 10 27 0.0 0.0 0.00 0.15 0.15 71 1021.6
20260506192435 10 310 0.0 0.0 0.00 0.15 0.15 72 1021.7
20260506191932 10 181 0.0 0.0 0.00 0.15 0.15 75 1021.6
20260506191428 10 19 0.0 0.0 0.00 0.15 0.15 79 1021.8
20260506190925 9 263 0.0 0.0 0.00 0.15 0.15 80 1021.6
20260506190422 9 286 0.0 0.0 0.00 0.15 0.15 83 1021.6
20260506185918 9 130 0.0 0.0 0.00 0.15 0.15 79 1021.5
20260506185416 9 172 0.0 0.0 0.00 0.15 0.15 77 1021.5
20260506184913 9 193 0.0 0.0 0.00 0.15 0.15 77 1021.5
20260506184410 10 268 0.0 0.0 0.00 0.15 0.15 75 1021.7
20260506183907 10 145 0.0 0.0 0.00 0.15 0.15 75 1021.6
20260506183402 10 214 0.0 0.0 0.00 0.15 0.15 76 1021.4
20260506182859 10 189 0.0 0.0 0.00 0.15 0.15 77 1021.6
20260506182356 9 292 0.0 0.0 0.00 0.15 0.15 79 1021.7
20260506181854 9 307 0.0 0.0 0.00 0.15 0.15 77 1021.7
20260506181352 10 263 0.0 0.0 0.00 0.15 0.15 79 1021.7
20260506180849 9 250 0.0 0.0 0.00 0.15 0.15 82 1021.9
20260506180344 9 5 0.0 0.0 0.00 0.15 0.15 81 1021.7
20260506175841 9 319 0.0 0.0 0.00 0.15 0.15 83 1021.6
20260506175338 8 11 0.0 0.0 0.00 0.15 0.15 88 1021.7
20260506174835 8 342 0.0 0.0 0.00 0.15 0.15 90 1021.8
20260506174332 8 124 0.0 0.0 0.00 0.15 0.15 85 1021.7
20260506173830 8 101 0.0 0.0 0.00 0.15 0.15 86 1021.8
20260506173327 8 89 0.0 0.0 0.00 0.15 0.15 86 1021.9
20260506172824 8 95 0.0 0.0 0.00 0.15 0.15 90 1021.7
20260506172320 8 95 0.0 0.0 0.00 0.15 0.15 89 1021.8
20260506171818 7 279 0.0 0.0 0.00 0.15 0.15 90 1021.8
20260506171315 8 15 0.0 0.0 0.00 0.15 0.15 89 1022.0
20260506170813 7 178 0.0 0.0 0.00 0.15 0.15 90 1021.9
20260506170308 7 60 0.0 0.0 0.00 0.15 0.15 89 1021.8
20260506165807 7 253 0.0 0.0 0.00 0.15 0.15 90 1021.7
20260506165305 7 349 0.0 0.0 0.00 0.15 0.15 91 1021.7
20260506164801 7 121 0.0 0.0 0.00 0.15 0.15 89 1021.7
20260506164258 7 1 0.0 0.0 0.00 0.15 0.15 90 1022.0
20260506163755 7 279 0.0 0.0 0.00 0.15 0.15 91 1021.7
20260506163249 7 78 0.0 0.0 0.00 0.15 0.15 92 1021.7
20260506162746 7 83 0.0 0.0 0.00 0.15 0.15 93 1021.6
20260506162244 7 40 0.0 0.0 0.00 0.15 0.15 93 1022.0
20260506161736 7 327 0.0 0.0 0.00 0.15 0.15 90 1021.5
20260506161232 7 219 0.0 0.0 0.00 0.15 0.15 92 1021.5
20260506160729 7 246 0.0 0.0 0.00 0.15 0.15 90 1021.5
20260506160226 7 338 0.0 0.0 0.00 0.15 0.15 92 1021.4
20260506155725 7 333 0.0 0.0 0.00 0.15 0.15 92 1021.4
20260506155222 7 289 0.0 0.0 0.00 0.15 0.15 93 1021.4
20260506153329 7 272 0.0 0.0 0.00 0.15 0.15 94 1021.3
20260506152826 7 256 0.0 0.0 0.00 0.15 0.15 94 1021.1
20260506152323 7 10 0.0 0.0 0.00 0.15 0.15 94 1021.2
20260506151822 7 85 0.0 0.0 0.00 0.15 0.15 94 1021.1
20260506151318 7 184 0.0 0.0 0.00 0.15 0.15 95 1021.2
20260506150815 6 328 0.0 0.0 0.00 0.15 0.15 95 1021.1
20260506150312 6 70 0.0 0.0 0.00 0.15 0.15 95 1020.9
20260506145809 6 91 0.0 0.0 0.00 0.15 0.15 95 1021.0
20260506145306 6 173 0.0 0.0 0.00 0.15 0.15 95 1020.9
20260506144803 6 192 0.0 0.0 0.00 0.15 0.15 96 1020.9
20260506144259 6 181 0.0 0.0 0.00 0.15 0.15 95 1021.0
20260506143757 6 91 0.0 0.0 0.00 0.15 0.15 95 1020.9
20260506143254 6 64 0.0 0.0 0.00 0.15 0.15 95 1020.9
20260506142753 6 48 0.0 0.0 0.00 0.15 0.15 95 1021.0
20260506142250 6 223 0.0 0.0 0.00 0.15 0.15 96 1021.0
20260506141748 6 164 0.0 0.0 0.00 0.15 0.15 96 1020.7
20260506141246 6 141 0.0 0.0 0.18 0.15 0.15 96 1020.7
20260506140743 6 322 0.0 0.0 0.18 0.15 0.15 96 1020.8
20260506140240 6 92 0.0 0.0 0.00 0.13 0.13 96 1020.8
20260506135737 6 122 0.0 0.0 0.00 0.13 0.13 96 1020.6
20260506135233 6 230 0.0 0.0 0.00 0.13 0.13 96 1020.6
20260506134730 6 80 0.0 0.0 0.00 0.13 0.13 96 1020.6
20260506134227 6 149 0.0 0.0 0.00 0.13 0.13 96 1020.6
20260506133724 6 327 0.0 0.0 0.00 0.13 0.13 96 1020.7
20260506133221 6 330 0.0 0.0 0.00 0.13 0.13 96 1020.6
20260506132718 6 277 0.0 0.0 0.00 0.13 0.13 96 1020.6
20260506132215 6 174 0.0 0.0 0.00 0.13 0.13 96 1020.4
20260506131713 6 194 0.0 0.0 0.13 0.13 0.13 96 1020.4
20260506131208 6 336 0.0 0.0 0.13 0.13 0.13 95 1020.4
20260506130705 6 89 0.0 0.0 0.00 0.10 0.10 95 1020.4
20260506130202 6 299 0.0 0.0 0.18 0.10 0.10 95 1020.4
20260506125700 6 9 0.0 0.0 0.18 0.10 0.10 95 1020.3
20260506125158 6 109 0.0 0.0 0.00 0.08 0.08 95 1020.3
20260506124656 6 145 0.0 0.0 0.18 0.08 0.08 95 1020.2
20260506124154 6 246 0.0 0.0 0.18 0.08 0.08 95 1020.2
20260506123651 6 244 0.0 0.0 0.00 0.05 0.05 95 1020.1
20260506123149 6 87 0.0 0.0 0.00 0.05 0.05 94 1020.1
20260506122646 6 110 0.0 0.0 0.00 0.05 0.05 94 1020.2
20260506122143 6 261 0.0 0.0 0.00 0.05 0.05 94 1020.1
20260506121641 6 119 0.0 0.0 0.00 0.05 0.05 94 1020.0
20260506121137 6 140 0.0 0.0 0.00 0.05 0.05 94 1020.0
20260506120635 6 310 0.0 0.0 0.00 0.05 0.05 94 1019.9
20260506120132 6 278 0.0 0.0 0.13 0.05 0.05 94 1019.8
20260506115631 6 317 0.0 0.0 0.13 0.05 0.05 93 1019.8
20260506115129 6 201 0.0 0.0 0.18 0.03 0.03 92 1019.8
20260506114625 6 52 0.0 0.0 0.18 0.03 0.03 92 1019.8
20260506114124 6 329 0.0 0.0 0.00 0.00 0.00 91 1019.7
20260506113622 7 356 0.0 0.0 0.00 0.00 0.00 91 1019.6
20260506113119 7 146 0.0 0.0 0.00 0.00 0.00 89 1019.8
20260506112615 7 41 0.0 0.0 0.00 0.00 0.00 89 1019.7
20260506112112 7 62 0.0 0.0 0.00 0.00 0.00 88 1019.6
20260506111610 7 206 0.0 0.0 0.00 0.00 0.00 87 1019.6
20260506111108 7 357 0.0 0.0 0.00 0.00 0.00 86 1019.5
20260506110605 7 272 0.0 0.0 0.00 0.00 0.00 85 1019.5
20260506105558 7 260 0.0 0.0 0.00 0.00 0.00 86 1019.5
20260506105055 7 147 0.0 0.0 0.00 0.00 0.00 85 1019.5
20260506104554 7 8 0.0 0.0 0.00 0.00 0.00 85 1019.5
20260506104051 7 263 0.0 0.0 0.00 0.00 0.00 86 1019.5
20260506103548 7 43 0.0 0.0 0.00 0.00 0.00 86 1019.7
20260506103044 7 28 0.0 0.0 0.00 0.00 0.00 86 1019.4
20260506102543 7 73 0.0 0.0 0.00 0.00 0.00 88 1019.5
20260506102040 7 311 0.0 0.0 0.00 0.00 0.00 89 1019.4
20260506101537 7 312 0.0 0.0 0.00 0.00 0.00 89 1019.3
20260506101034 7 312 0.0 0.0 0.00 0.00 0.00 89 1019.3
20260506100532 7 312 0.0 0.0 0.00 0.00 0.00 89 1019.3
20260506100030 7 313 0.0 0.0 0.00 0.00 0.00 89 1019.3
20260506095528 7 313 0.0 0.0 0.00 0.00 0.00 88 1019.4
20260506095024 7 313 0.0 0.0 0.00 0.00 0.00 88 1019.4
20260506094522 7 313 0.0 0.0 0.00 0.00 0.00 88 1019.1
20260506094020 7 313 0.0 0.0 0.00 0.00 0.00 88 1019.2
20260506093518 7 157 0.0 0.0 0.00 0.00 0.00 88 1019.1
20260506093015 7 321 0.0 0.0 0.00 0.00 0.00 88 1019.0
20260506092513 7 336 0.0 0.0 0.00 0.00 0.00 88 1018.9
20260506092009 7 6 0.0 0.0 0.00 0.00 0.00 88 1019.0
20260506091508 7 26 0.0 0.0 0.00 0.00 0.00 88 1018.9
20260506091004 7 153 0.0 0.0 0.00 0.00 0.00 88 1018.8
20260506090503 7 203 0.0 0.0 0.00 0.00 0.00 88 1018.9
20260506085958 7 203 0.0 0.0 0.00 0.00 0.00 88 1018.8
20260506085455 7 204 0.0 0.0 0.00 0.00 0.00 88 1018.8
20260506084952 7 208 0.0 0.0 0.00 0.00 0.00 89 1018.9
20260506084449 7 208 0.0 0.0 0.00 0.00 0.00 89 1018.8
20260506083945 7 208 0.0 0.0 0.00 0.00 0.00 88 1019.0
20260506083442 7 208 0.0 0.0 0.00 0.00 0.00 88 1018.8
20260506082939 7 208 0.0 0.0 0.00 0.00 0.00 88 1018.8
20260506082436 7 208 0.0 0.0 0.00 0.00 0.00 88 1018.8
20260506081932 7 209 0.0 0.0 0.00 0.00 0.00 88 1018.6
20260506081431 7 209 0.0 0.0 0.00 0.00 0.00 87 1018.8
20260506080927 7 172 0.0 0.0 0.00 0.00 0.00 86 1018.6
20260506080424 7 117 0.0 0.0 0.00 0.00 0.00 86 1018.5
20260506073408 6 215 0.0 0.0 0.00 0.00 0.00 87 1018.7
20260506072905 6 222 0.0 0.0 0.00 0.00 0.00 88 1018.6
20260506072402 6 222 0.0 0.0 0.00 0.00 0.00 88 1018.7
20260506071900 6 222 0.0 0.0 0.00 0.00 0.00 88 1018.8
20260506071358 6 222 0.0 0.0 0.00 0.00 0.00 88 1018.8
20260506070854 6 222 0.0 0.0 0.00 0.00 0.00 87 1018.8
20260506070352 6 223 0.0 0.0 0.00 0.00 0.00 87 1018.7
20260506062329 6 210 0.0 0.0 0.00 0.00 0.00 86 1018.5
20260506061825 6 210 0.0 0.0 0.00 0.00 0.00 85 1018.6
20260506061322 6 210 0.0 0.0 0.00 0.00 0.00 85 1018.6
20260506060820 6 210 0.0 0.0 0.00 0.00 0.00 84 1018.6
20260506060318 7 210 0.0 0.0 0.00 0.00 0.00 83 1018.5
20260506051249 7 258 0.0 0.0 0.00 0.00 0.00 79 1018.5
20260506050747 7 300 0.0 0.0 0.00 0.00 0.00 79 1018.6
20260506050244 8 137 0.0 0.0 0.00 0.00 0.00 80 1018.2
20260506044735 8 323 0.0 0.0 0.00 0.00 0.00 77 1018.2
20260506044232 8 155 0.0 0.0 0.00 0.00 0.00 77 1018.1
20260506043730 8 180 0.0 0.0 0.00 0.00 0.00 77 1018.1
20260506043227 8 91 0.0 0.0 0.00 0.00 0.00 75 1017.9
20260506042726 8 329 0.0 0.0 0.00 0.00 0.00 75 1017.9
20260506042224 8 196 0.0 0.0 0.00 0.00 0.00 75 1017.7
20260506041722 8 49 0.0 0.0 0.00 0.00 0.00 74 1017.7
20260506041219 8 203 0.0 0.0 0.00 0.00 0.00 73 1017.7
20260506040716 9 75 0.0 0.0 0.00 0.00 0.00 72 1017.8
20260506040213 9 124 0.0 0.0 0.00 0.00 0.00 71 1017.6
20260506035709 9 2 0.0 0.0 0.00 0.00 0.00 71 1017.6
20260506035207 9 2 0.0 0.0 0.00 0.00 0.00 70 1017.4
20260506034703 9 319 0.0 0.0 0.00 0.00 0.00 71 1017.3
20260506034201 10 124 0.0 0.0 0.00 0.00 0.00 70 1017.3
20260506033658 10 351 0.0 0.0 0.00 0.00 0.00 69 1017.3
20260506033155 10 195 0.0 0.0 0.00 0.00 0.00 69 1017.4
20260506032652 10 34 0.0 0.0 0.00 0.00 0.00 68 1017.3
20260506032149 10 170 0.0 0.0 0.00 0.00 0.00 68 1017.2
20260506031645 10 349 0.0 0.0 0.00 0.00 0.00 68 1017.3
20260506031142 10 236 0.0 0.0 0.00 0.00 0.00 67 1017.1
20260506030641 10 196 0.0 0.0 0.00 0.00 0.00 67 1017.1
20260506030138 10 301 0.0 0.0 0.00 0.00 0.00 66 1017.0
20260506025635 10 175 0.0 1.6 0.00 0.00 0.00 65 1017.0
20260506025130 10 216 0.0 0.0 0.00 0.00 0.00 65 1017.1
20260506024628 11 329 0.0 0.0 0.00 0.00 0.00 64 1016.8
20260506024124 11 247 0.0 0.0 0.00 0.00 0.00 64 1016.8
20260506023621 11 207 0.0 0.0 0.00 0.00 0.00 64 1016.7
20260506023118 11 112 0.0 0.0 0.00 0.00 0.00 64 1016.8
20260506022615 11 27 0.0 0.0 0.00 0.00 0.00 63 1016.7
20260506022112 11 15 0.0 0.0 0.00 0.00 0.00 61 1016.5
20260506021610 11 202 0.0 1.6 0.00 0.00 0.00 61 1016.5
20260506021107 11 242 0.0 0.0 0.00 0.00 0.00 61 1016.5
20260506020604 11 356 0.0 0.0 0.00 0.00 0.00 60 1016.5